Regional Weather Roundup
Issued by NWS New Orleans/Baton Rouge, LA

Home | Current Version | Previous Version | Text Only | Print | Product List | Glossary On
Versions: 1 2 3 4 5 6 7 8 9 10 11 12 13 14 15 16 17 18 19 20 21 22 23 24 25 26 27 28 29 30 31 32 33 34 35 36 37 38 39 40 41 42 43 44 45 46 47 48 49 50
509
ASUS44 KLIX 310311
RWRLIX
NEW ORLEANS REGIONAL WEATHER ROUNDUP
NATIONAL WEATHER SERVICE NEW ORLEANS LA
1000 PM CDT SAT JUL 30 2016

NOTE: "FAIR" INDICATES FEW OR NO CLOUDS BELOW 12,000 FEET WITH NO
      SIGNIFICANT WEATHER AND/OR OBSTRUCTIONS TO VISIBILITY.
      SKY/WX - SKY CONDITION AND SIGNIFICANT WEATHER.
      TMP - AIR TEMPERATURE.     DP    - DEWPOINT TEMPERATURE.
      RH  - RELATIVE HUMIDITY.   PRES  - PRESSURE.
      HI  - HEAT INDEX.          WCI   - WIND CHILL INDEX.

*  THESE STATIONS ARE NOT NWS OR FAA STATIONS AND ARE NOT UNDER
   NWS QUALITY CONTROL.

LAZ038-040-048-061>063-065>067-069-310400-
SOUTHEAST LOUISIANA

CITY           SKY/WX    TMP DP  RH WIND       PRES   REMARKS
N.O. AUDUBON     N/A     84  79  84 MISG        N/A  HX  96
N.O. INTL ARPT PTCLDY    86  75  69 SW7       30.02R HX  95
N.O. LAKEFRONT CLEAR     86  75  69 SW6       30.03R HX  95
N.O. DOWNTOWN*   N/A     87  77  72 S5        30.03R HX  99
RESERVE*         N/A     81  77  88 CALM      30.02R
SLIDELL        CLEAR     79  78  97 CALM      30.02R
BATON ROUGE    CLEAR     79  76  90 CALM      30.02R
BOOTHVILLE     CLEAR     85  76  74 SW6       30.04R
BELLE CHASSE   CLEAR     80  77  90 CALM      30.02R
BOGALUSA*        N/A     79  73  82 NE3       30.05R
GALLIANO*      CLEAR     77  77 100 CALM      30.03R
NEW ROADS*       N/A     79  76  91 CALM      30.02R
GONZALES*        N/A     79  78  97 CALM      30.02R
HAMMOND*       MOCLDY    77  72  83 N3        30.03R
HOUMA*         CLEAR     80  77  89 CALM      30.02R
PORT FOURCHON* CLEAR     86  75  70 SW5       30.03R HX  95

$$

MSZ070-080>082-310400-
SOUTHERN MISSISSIPPI

CITY           SKY/WX    TMP DP  RH WIND       PRES   REMARKS
MCCOMB         PTCLDY    80  73  79 S6        30.04R
GULFPORT       PTCLDY    82  77  84 CALM      30.01R
BILOXI         PTCLDY    83  78  83 W3        30.02R
PASCAGOULA     CLEAR     78  78 100 CALM      30.02R

$$

COASTAL OBSERVATIONS
LAKE AND NEARSHORE STATIONS

STATION/POSITION TIME  TEMP    WIND        PRES    WAVE
                       AIR SEA DIR/SP/G            HT/PER
                 (UTC) (F)     (DEG/KT/KT) (MB)    (FT/S)
PASCAGOULA       0200          240/  6/  9 1016.0
WAVELAND YACHT   0200      88  280/  2/  4 1016.2
GRAND ISLE       0200      90  230/  6/ 10 1016.3
SOUTHWEST PASS   0200          260/  8/  8   N/A
NEW CANAL        0200      88  210/  4/  6 1015.2
SHELL BEACH      0200      90  240/  3/  4 1016.4

OFFSHORE STATIONS

STATION/POSITION TIME  TEMP    WIND        PRES    WAVE
                       AIR SEA DIR/SP/G            HT/PER
                 (UTC) (F)     (DEG/KT/KT) (MB)    (FT/S)
64 S DAUPHIN ISL 0200   86 89  210/  6/  8 1016.4

$$





USA.gov is the U.S. government's official web portal to all federal, state and local government web resources and services.